NIMBUS 2 DEB, 42439

Orbit data source: Space-Track

NIMBUS 2 DEB, 42439 is space debris in SSO originally from a launch on Sun, 15 May 1966 UTC launched from the Air Force Western Test Range (AFWTR). Debris objects in space refer to the collection of defunct objects orbiting the Earth. Examples of debris include non-operational satellites, rocket bodies, and fragments generated from explosions, collisions, or faulty payload assembly.

Loading next visibility...
Identifier
42439, 1966-040BS
Orbit
SSO
Country
Flag of USUS
Related business
Manufacturer
Unknown
Mission
Spacecraft
Bus & Motor
Unknown
Mass
Unknown
Launch date (UTC)
1966-05-15 (59 years ago)
Launch vehicle
Unknown
Launch site
Air Force Western Test Range (AFWTR)
Object type
Payload
Rocket body
Debris
Shape & HBR
Unknown shape, 0.1 m
Radar Cross Section
Small (<0.1 m²)

Expand to show TLE details & history
Last TLE update: 2 days ago

TLE from 2 days ago
0 NIMBUS 2 DEB
1 42439U 66040BS  25285.30997299  .00002987  00000-0  48117-2 0  9997
2 42439 100.2438 130.3014 0044736   3.6834 356.4619 13.49035829489573
Epoch: 2025-10-12T07:26Z
TLE epoch observation values (Epoch: 2025-10-12T07:26:21.666Z)
Latitude
-0.00002°
Longitude
-2.41782°
Altitude
1,045.285 km
Speed
7.346 km/s
True Right ascension
08h 41m 12s
True Declination
0° 00' 00"
Sunlit
Object was in daylight at epoch
Visualization orbit readout
Latitude
Unknown
Longitude
Unknown
Altitude
Unknown
Speed
Unknown
Apparent Right ascension
Unknown
Apparent Declination
Unknown
Sunlit
N/A
Visualization observer readout
Local Sidereal Time
04:40:17
Azimuth
Unknown
Elevation
Unknown
Doppler factor
Unknown
Orbital elements
Apogee altitude
1,106.473 km
Perigee altitude
1,039.805 km
Semi-major axis
7,451.276 km
Eccentricity
0.00447
Inclination
100.2438°
RAAN
130.3014°
Arg. of periapsis
3.6834°
True anomaly
356.43009°
Mean anomaly
356.4619°
Eccentric anomaly
356.44601°
Mean motion
3.3744 °/min
Orbital period
106.69 mins
BSTAR
0.0048117
Loading maneuver chart data...
Computing Atmospheric mass density...
Loading historical data...
Loading historical data...
Loading historical data...
Loading historical data...
Loading historical data...
Loading historical data...
Loading historical data...

Documentation

Showing up to 5 results
|